When you browse on this site, cookies collect data to enhance your experience and personalize the content and advertising you see.
Visit our Privacy Policy to learn more. By continuing to use the site, you agree to this use of cookies and data.

Hourly Weather Buenos Aires

Today, 26 September, Saturday

Time Temperature Precipitation Wind Pressure Humidity
00:00 +15°C° 0.6 mm 9 mps 758 mmHg 75%
01:00 +15°C° 0.6 mm 9 mps 758 mmHg 71%
02:00 +14°C° 0.6 mm 10 mps 757 mmHg 68%
03:00 +13°C° 1.5 mm 9 mps 756 mmHg 72%
04:00 +13°C° 1.5 mm 9 mps 756 mmHg 76%
05:00 +13°C° 1.5 mm 8 mps 756 mmHg 81%
06:00 +13°C° 2.3 mm 9 mps 756 mmHg 83%
07:00 +13°C° 2.3 mm 9 mps 756 mmHg 85%
08:00 +13°C° 2.3 mm 9 mps 756 mmHg 88%
09:00 +15°C° 1.2 mm 8 mps 755 mmHg 88%
10:00 +15°C° 1.2 mm 8 mps 754 mmHg 88%
11:00 +16°C° 1.2 mm 7 mps 754 mmHg 87%
12:00 +16°C° 0.4 mm 6 mps 753 mmHg 89%
13:00 +16°C° 0.4 mm 5 mps 753 mmHg 90%
14:00 +16°C° 0.4 mm 5 mps 753 mmHg 91%
15:00 +17°C° 0.3 mm 4 mps 752 mmHg 92%
16:00 +17°C° 0.3 mm 4 mps 752 mmHg 92%
17:00 +17°C° 0.3 mm 4 mps 752 mmHg 93%
18:00 +17°C° 0 mm 4 mps 752 mmHg 93%
19:00 +17°C° 0 mm 3 mps 752 mmHg 93%
20:00 +17°C° 0 mm 3 mps 752 mmHg 94%
21:00 +16°C° 0 mm 3 mps 752 mmHg 93%
22:00 +16°C° 0 mm 3 mps 752 mmHg 93%
23:00 +16°C° 0 mm 3 mps 752 mmHg 93%

Tomorrow, 27 September, Sunday

Time Temperature Precipitation Wind Pressure Humidity
00:00 +16°C° 0 mm 3 mps 752 mmHg 93%
01:00 +16°C° 0 mm 2 mps 752 mmHg 93%
02:00 +15°C° 0 mm 1 mps 751 mmHg 92%
03:00 +15°C° 0 mm 2 mps 751 mmHg 91%
04:00 +14°C° 0 mm 4 mps 751 mmHg 89%
05:00 +14°C° 0 mm 5 mps 751 mmHg 88%
06:00 +14°C° 0 mm 5 mps 752 mmHg 85%
07:00 +14°C° 0 mm 5 mps 752 mmHg 83%
08:00 +14°C° 0 mm 5 mps 752 mmHg 81%
09:00 +15°C° 0 mm 6 mps 752 mmHg 79%
10:00 +15°C° 0 mm 6 mps 752 mmHg 78%
11:00 +15°C° 0 mm 6 mps 753 mmHg 77%
12:00 +15°C° 0.1 mm 6 mps 753 mmHg 76%
13:00 +15°C° 0.1 mm 6 mps 753 mmHg 76%
14:00 +15°C° 0.1 mm 6 mps 753 mmHg 75%
15:00 +14°C° 0.1 mm 7 mps 753 mmHg 77%
16:00 +12°C° 0.1 mm 7 mps 754 mmHg 78%
17:00 +11°C° 0.1 mm 8 mps 754 mmHg 79%
18:00 +11°C° 0.1 mm 8 mps 755 mmHg 78%
19:00 +11°C° 0.1 mm 7 mps 756 mmHg 78%
20:00 +11°C° 0.1 mm 7 mps 756 mmHg 77%
21:00 +11°C° 0 mm 6 mps 757 mmHg 76%
22:00 +11°C° 0 mm 6 mps 757 mmHg 75%
23:00 +12°C° 0 mm 5 mps 758 mmHg 74%

Day after tomorrow, 28 September, Monday

Time Temperature Precipitation Wind Pressure Humidity
00:00 +12°C° 0 mm 5 mps 757 mmHg 76%
01:00 +10°C° 0 mm 5 mps 757 mmHg 78%
02:00 +10°C° 0 mm 5 mps 757 mmHg 80%
03:00 +9°C° 0 mm 5 mps 757 mmHg 78%
04:00 +9°C° 0 mm 5 mps 758 mmHg 76%
05:00 +8°C° 0 mm 4 mps 758 mmHg 74%
06:00 +10°C° 0 mm 4 mps 758 mmHg 69%
07:00 +10°C° 0 mm 4 mps 758 mmHg 64%
08:00 +11°C° 0 mm 4 mps 759 mmHg 59%
09:00 +13°C° 0 mm 3 mps 759 mmHg 52%
10:00 +16°C° 0 mm 3 mps 759 mmHg 45%
11:00 +18°C° 0 mm 3 mps 759 mmHg 39%
12:00 +19°C° 0 mm 3 mps 758 mmHg 38%
13:00 +20°C° 0 mm 3 mps 758 mmHg 37%
14:00 +21°C° 0 mm 3 mps 757 mmHg 36%
15:00 +20°C° 0 mm 3 mps 757 mmHg 38%
16:00 +20°C° 0 mm 2 mps 757 mmHg 40%
17:00 +20°C° 0 mm 2 mps 757 mmHg 42%
18:00 +20°C° 0 mm 1 mps 757 mmHg 46%
19:00 +19°C° 0 mm 1 mps 757 mmHg 49%
20:00 +15°C° 0 mm 0 mps 757 mmHg 52%
21:00 +16°C° 0 mm 1 mps 757 mmHg 54%
22:00 +16°C° 0 mm 2 mps 757 mmHg 55%
23:00 +14°C° 0 mm 3 mps 757 mmHg 56%

29 September, Tuesday

Time Temperature Precipitation Wind Pressure Humidity
00:00 +14°C° 0 mm 3 mps 757 mmHg 59%
01:00 +13°C° 0 mm 4 mps 757 mmHg 63%
02:00 +13°C° 0 mm 4 mps 757 mmHg 66%
03:00 +13°C° 0 mm 4 mps 757 mmHg 68%
04:00 +13°C° 0 mm 4 mps 757 mmHg 70%
05:00 +12°C° 0 mm 4 mps 757 mmHg 72%
06:00 +13°C° 0 mm 4 mps 757 mmHg 68%
07:00 +14°C° 0 mm 4 mps 756 mmHg 64%
08:00 +15°C° 0 mm 4 mps 756 mmHg 60%
09:00 +18°C° 0 mm 4 mps 756 mmHg 54%
10:00 +20°C° 0 mm 4 mps 755 mmHg 49%
11:00 +22°C° 0 mm 4 mps 755 mmHg 44%
12:00 +23°C° 0 mm 4 mps 754 mmHg 42%
13:00 +25°C° 0 mm 4 mps 754 mmHg 39%
14:00 +26°C° 0 mm 4 mps 753 mmHg 37%
15:00 +25°C° 0 mm 4 mps 753 mmHg 40%
16:00 +25°C° 0 mm 4 mps 753 mmHg 44%
17:00 +23°C° 0 mm 4 mps 753 mmHg 48%
18:00 +22°C° 0 mm 3 mps 753 mmHg 54%
19:00 +21°C° 0 mm 3 mps 754 mmHg 60%
20:00 +20°C° 0 mm 3 mps 754 mmHg 67%
21:00 +19°C° 0 mm 3 mps 754 mmHg 69%
22:00 +19°C° 0 mm 3 mps 754 mmHg 72%
23:00 +18°C° 0 mm 3 mps 754 mmHg 74%

30 September, Wednesday

Time Temperature Precipitation Wind Pressure Humidity
00:00 +18°C° 0 mm 3 mps 754 mmHg 76%
01:00 +17°C° 0 mm 2 mps 754 mmHg 78%
02:00 +17°C° 0 mm 2 mps 754 mmHg 80%
03:00 +17°C° 0 mm 2 mps 754 mmHg 81%
04:00 +16°C° 0 mm 2 mps 754 mmHg 82%
05:00 +16°C° 0 mm 2 mps 754 mmHg 83%
06:00 +17°C° 0 mm 3 mps 755 mmHg 74%
07:00 +18°C° 0 mm 4 mps 756 mmHg 65%
08:00 +19°C° 0 mm 5 mps 756 mmHg 57%
09:00 +19°C° 0 mm 5 mps 757 mmHg 50%
10:00 +20°C° 0 mm 5 mps 757 mmHg 44%
11:00 +20°C° 0 mm 5 mps 757 mmHg 37%
12:00 +19°C° 0 mm 5 mps 757 mmHg 39%
13:00 +19°C° 0 mm 5 mps 757 mmHg 40%
14:00 +18°C° 0 mm 4 mps 757 mmHg 41%
15:00 +17°C° 0 mm 4 mps 757 mmHg 44%
16:00 +17°C° 0 mm 3 mps 757 mmHg 47%
17:00 +16°C° 0 mm 3 mps 757 mmHg 50%
18:00 +16°C° 0 mm 3 mps 758 mmHg 51%
19:00 +16°C° 0 mm 2 mps 758 mmHg 52%
20:00 +16°C° 0 mm 2 mps 758 mmHg 53%
21:00 +15°C° 0 mm 2 mps 758 mmHg 54%
22:00 +15°C° 0 mm 2 mps 758 mmHg 55%
23:00 +15°C° 0 mm 2 mps 758 mmHg 56%

1 October, Thursday

Time Temperature Precipitation Wind Pressure Humidity
00:00 +13°C° 0 mm 3 mps 758 mmHg 59%
01:00 +13°C° 0 mm 3 mps 758 mmHg 61%
02:00 +12°C° 0 mm 4 mps 757 mmHg 64%
03:00 +11°C° 0 mm 3 mps 758 mmHg 62%
04:00 +11°C° 0 mm 3 mps 758 mmHg 60%
05:00 +11°C° 0 mm 3 mps 759 mmHg 58%
06:00 +11°C° 0 mm 4 mps 759 mmHg 51%
07:00 +12°C° 0 mm 5 mps 760 mmHg 44%
08:00 +13°C° 0 mm 6 mps 760 mmHg 36%
09:00 +14°C° 0 mm 6 mps 760 mmHg 34%
10:00 +15°C° 0 mm 6 mps 760 mmHg 31%
11:00 +16°C° 0 mm 7 mps 760 mmHg 29%
12:00 +16°C° 0 mm 7 mps 761 mmHg 30%
13:00 +16°C° 0 mm 7 mps 761 mmHg 30%
14:00 +16°C° 0 mm 8 mps 761 mmHg 31%
15:00 +15°C° 0 mm 7 mps 761 mmHg 33%
16:00 +14°C° 0 mm 7 mps 762 mmHg 35%
17:00 +12°C° 0 mm 7 mps 762 mmHg 37%
18:00 +11°C° 0 mm 6 mps 763 mmHg 39%
19:00 +11°C° 0 mm 6 mps 764 mmHg 40%
20:00 +10°C° 0 mm 5 mps 765 mmHg 41%
21:00 +9°C° 0 mm 5 mps 766 mmHg 42%
22:00 +8°C° 0 mm 5 mps 766 mmHg 43%
23:00 +8°C° 0 mm 5 mps 767 mmHg 43%
Show more